Showing default

TJS-10, 58204

Orbit data source: Space-Track

TJS-10, 58204 is a payload satellite owned by PLA SSF (CN) in GEO that was launched on Fri, 03 Nov 2023 UTC via a CHANG ZHENG 7A launch vehicle from the Wenchang Satellite Launch Center (WSC). Payload-class satellites include a variety of spacecraft equipped with specific instruments for various scientific and technological missions. These include communications satellites like Starlink; space stations such as the ISS; scientific satellites like the Hubble; Earth observation satellites from companies like Planet Labs, Umbra, and HawkEye 360; GPS; miniature CubeSats for education and research; and military/defense satellites.

Not visible in the next 10 days
Identifier
58204, 2023-169A
Orbit
GEO
Country
Flag of CNCN / PRC
Related business
Manufacturer
SISE
Mission
Operational Defense Early Warn
Bus & Motor
FY-4?, LAE
Mass
~5,000 kg wet, ~2,500 kg dry
Launch date (UTC)
2023-11-03 (3 years ago)
Launch vehicle
CHANG ZHENG 7A
Launch site
Wenchang Satellite Launch Center (WSC)
Object type
Payload
Rocket body
Debris
Shape & HBR
Box + 2 Pan, 15.0 m
Radar Cross Section
34.063 m², Large (>1 m²)

Expand to show TLE details & history
Last TLE update: 23 hours ago

TLE from 23 hours ago
0 TJS-10
1 58204U 23169A   26194.74455102 -.00000256  00000-0  00000+0 0  9993
2 58204   2.6105  80.1722 0004074 115.9637  95.8858  1.00274171  9805
Epoch: 2026-07-13T17:52Z
TLE epoch observation values (Epoch: 2026-07-13T17:52:09.208Z)
Latitude
-1.40546°
Longitude
92.39448°
Altitude
35,787.391 km
Speed
3.075 km/s
True Right ascension
19h 28m 13s
True Declination
-1° 24' 15"
Sunlit
Object was in daylight at epoch
Visualization orbit readout
Latitude
Unknown
Longitude
Unknown
Altitude
Unknown
Speed
Unknown
Apparent Right ascension
Unknown
Apparent Declination
Unknown
Sunlit
N/A
Visualization observer readout
Local Sidereal Time
05:22:15
Azimuth
Unknown
Elevation
Unknown
Doppler factor
Unknown
Orbital elements
Apogee altitude
35,804.171 km
Perigee altitude
35,769.815 km
Semi-major axis
42,165.13 km
Eccentricity
0.00041
Inclination
2.6105°
RAAN
80.1722°
Arg. of periapsis
115.9637°
True anomaly
95.93224°
Mean anomaly
95.8858°
Eccentric anomaly
95.90902°
Mean motion
0.25068 °/min
Orbital period
1,436.12 mins
BSTAR
0
Loading maneuver chart data...
Computing Atmospheric mass density...
Loading historical data...
Loading historical data...
Loading historical data...
Loading historical data...
Loading historical data...
Loading historical data...
Loading historical data...
Other satellites on launch #169 in the year 2023 (2023-11-03 UTC)

Documentation

Showing up to 5 results
|